This is the latest recevied weather packets stored in our database for station/object KC3QJO. If no packets are shown the sender has not sent any weather packets the latest 10 day(s).
| Time | Temp. | Humidity | Pressure | Rain* | Wind** | Luminosity | Snow |
|---|---|---|---|---|---|---|---|
| 1778008252 | 26.11° C | 36% | 1007 hPa | 0 mm | - | 619 W/m² | - |
| 1778007955 | 26.11° C | 36% | 1006.9 hPa | 0 mm | - | 612 W/m² | - |
| 1778007653 | 26.11° C | 36% | 1007.1 hPa | 0 mm | - | 601 W/m² | - |
| 1778006451 | 26.67° C | 33% | 1007.4 hPa | 0 mm | - | 700 W/m² | - |
| 1778005861 | 26.67° C | 33% | 1007.5 hPa | 0 mm | - | 749 W/m² | - |
| 1778001355 | 26.11° C | 40% | 1008.2 hPa | 0 mm | - | 809 W/m² | - |
| 1777998951 | 25° C | 43% | 1008.8 hPa | 0 mm | - | 803 W/m² | - |
| 1777998660 | 25° C | 43% | 1008.8 hPa | 0 mm | - | 802 W/m² | - |
| 1777996855 | 24.44° C | 44% | 1008.9 hPa | 0 mm | - | 777 W/m² | - |
| 1777996254 | 24.44° C | 45% | 1009 hPa | 0 mm | - | 768 W/m² | - |
| 1777994751 | 23.33° C | 48% | 1009.3 hPa | 0 mm | - | 733 W/m² | - |
| 1777994157 | 22.78° C | 51% | 1009.5 hPa | 0 mm | - | 724 W/m² | - |
| 1777989351 | 20° C | 60% | 1010.2 hPa | 0 mm | - | 480 W/m² | - |
| 1777986957 | 17.78° C | 67% | 1010.4 hPa | 0 mm | - | 443 W/m² | - |
| 1777986351 | 17.78° C | 67% | 1010.2 hPa | 0 mm | - | 445 W/m² | - |
| 1777986062 | 17.22° C | 69% | 1010.2 hPa | 0 mm | - | 438 W/m² | - |
| 1777985752 | 16.67° C | 68% | 1010.2 hPa | 0 mm | - | 427 W/m² | - |
| 1777984851 | 16.11° C | 71% | 1010.1 hPa | 0 mm | - | 390 W/m² | - |
| 1777982155 | 14.44° C | 77% | 1009.9 hPa | 0 mm | - | 206 W/m² | - |
| 1777980352 | 13.33° C | 80% | 1009.7 hPa | 0 mm | - | 185 W/m² | - |
| 1777977656 | 11.67° C | 84% | 1009.5 hPa | 0 mm | - | 53 W/m² | - |
| 1777976152 | 11.67° C | 82% | 1009.4 hPa | 0.25 mm | - | 9 W/m² | - |
| 1777974955 | 12.22° C | 81% | 1009 hPa | 0.76 mm | - | 0 W/m² | - |
| 1777974051 | 12.22° C | 83% | 1009 hPa | 1.02 mm | - | 0 W/m² | - |
| 1777973151 | 12.22° C | 80% | 1008.8 hPa | 0.76 mm | - | 0 W/m² | - |
* Rain latest hour (hover to see other rain measurements)
** Current wind speed in m/s (hover to see current wind gust speed)